AUA71 LOWW-HECA

Flight info

Callsign AUA71
Flight time N/A
Altitude 39000
Route ARSIN DCT NALOX DCT OSDUK DCT SIVLA DCT AKIKA DCT MAVAR DCT BITLA DCT SIGFO DCT NEVRA DCT KUMBI L612 BLT A16 CVO
Aircraft A20N/M-SDE2E3FGHIJ1RWXY/LB1

Departure

Time 2026-04-24 14:09
Airport Vienna International Airport (LOWW)

Arrival

Time N/A
Airport Cairo International Airport (HECA)
Time Latitude Longitude Altitude Speed Heading
2026-04-24 13:34 48.11878 16.56820 607 ft 0 kts 206°
2026-04-24 13:59 48.11887 16.56827 607 ft 2 kts 208°
2026-04-24 14:00 48.11896 16.56834 607 ft 2 kts 205°
2026-04-24 14:00 48.11909 16.56843 607 ft 2 kts 195°
2026-04-24 14:00 48.11924 16.56845 607 ft 2 kts 177°
2026-04-24 14:00 48.11938 16.56841 607 ft 2 kts 159°
2026-04-24 14:01 48.11951 16.56831 607 ft 2 kts 142°
2026-04-24 14:01 48.11961 16.56816 607 ft 2 kts 125°
2026-04-24 14:01 48.11966 16.56805 607 ft 1 kts 115°
2026-04-24 14:01 48.11968 16.56799 607 ft 0 kts 116°
2026-04-24 14:03 48.11962 16.56815 607 ft 5 kts 116°
2026-04-24 14:03 48.11943 16.56872 607 ft 6 kts 116°
2026-04-24 14:04 48.11920 16.56942 607 ft 8 kts 116°
2026-04-24 14:04 48.11893 16.57025 607 ft 9 kts 116°
2026-04-24 14:04 48.11861 16.57120 607 ft 10 kts 117°
2026-04-24 14:04 48.11834 16.57226 607 ft 11 kts 103°
2026-04-24 14:05 48.11813 16.57346 607 ft 12 kts 107°
2026-04-24 14:05 48.11793 16.57467 607 ft 12 kts 136°
2026-04-24 14:05 48.11709 16.57513 607 ft 13 kts 165°
2026-04-24 14:05 48.11617 16.57551 607 ft 13 kts 165°
2026-04-24 14:06 48.11525 16.57588 607 ft 13 kts 165°
2026-04-24 14:06 48.11430 16.57628 607 ft 14 kts 165°
2026-04-24 14:06 48.11332 16.57667 607 ft 14 kts 166°
2026-04-24 14:06 48.11232 16.57657 607 ft 14 kts 202°
2026-04-24 14:07 48.11138 16.57594 607 ft 15 kts 206°
2026-04-24 14:07 48.11048 16.57510 607 ft 15 kts 214°
2026-04-24 14:07 48.10971 16.57437 607 ft 10 kts 224°
2026-04-24 14:07 48.10980 16.57335 607 ft 10 kts 298°
2026-04-24 14:08 48.11019 16.57218 607 ft 24 kts 295°
2026-04-24 14:08 48.11204 16.56652 607 ft 97 kts 296°
2026-04-24 14:08 48.11588 16.55458 607 ft 156 kts 296°
2026-04-24 14:08 48.12094 16.53911 1064 ft 169 kts 295°
2026-04-24 14:09 48.12472 16.52208 1640 ft 185 kts 272°
2026-04-24 14:09 48.11939 16.50331 2184 ft 214 kts 231°
2026-04-24 14:09 48.10640 16.49047 2748 ft 240 kts 210°
2026-04-24 14:09 48.09054 16.47968 3356 ft 258 kts 210°
2026-04-24 14:10 48.07928 16.47333 3755 ft 273 kts 198°
2026-04-24 14:10 48.05325 16.47353 4934 ft 287 kts 175°
2026-04-24 14:10 48.03374 16.47831 5827 ft 290 kts 174°
2026-04-24 14:10 48.01377 16.48301 6631 ft 294 kts 175°
2026-04-24 14:11 47.99387 16.49006 7410 ft 301 kts 162°
2026-04-24 14:11 47.97441 16.50207 8203 ft 306 kts 158°
2026-04-24 14:11 47.93517 16.52840 9709 ft 315 kts 158°
2026-04-24 14:12 47.91514 16.54131 10398 ft 321 kts 158°
2026-04-24 14:12 47.89425 16.55442 10983 ft 330 kts 158°
2026-04-24 14:12 47.87283 16.56765 11667 ft 334 kts 158°
2026-04-24 14:12 47.85141 16.58079 12389 ft 337 kts 158°
2026-04-24 14:13 47.82981 16.59397 13100 ft 339 kts 157°
2026-04-24 14:13 47.80784 16.60737 13801 ft 342 kts 157°
2026-04-24 14:13 47.78598 16.62070 14481 ft 345 kts 157°
2026-04-24 14:13 47.76383 16.63419 15181 ft 348 kts 157°
2026-04-24 14:14 47.74130 16.64789 15863 ft 350 kts 157°
2026-04-24 14:14 47.71930 16.66278 16543 ft 351 kts 152°
2026-04-24 14:14 47.67621 16.69742 17838 ft 355 kts 150°
2026-04-24 14:15 47.65456 16.71499 18468 ft 357 kts 150°
2026-04-24 14:15 47.63292 16.73238 19067 ft 360 kts 150°
2026-04-24 14:15 47.61096 16.74989 19647 ft 363 kts 151°
2026-04-24 14:15 47.58866 16.76757 20229 ft 366 kts 151°
2026-04-24 14:16 47.56603 16.78543 20801 ft 369 kts 151°
2026-04-24 14:16 47.54338 16.80328 21367 ft 372 kts 151°
2026-04-24 14:16 47.52074 16.82110 21912 ft 375 kts 151°
2026-04-24 14:17 47.47427 16.85753 23036 ft 381 kts 151°
2026-04-24 14:17 47.45090 16.87585 23586 ft 383 kts 151°
2026-04-24 14:17 47.40369 16.91276 24608 ft 389 kts 150°
2026-04-24 14:18 47.37980 16.93142 25101 ft 392 kts 150°
2026-04-24 14:18 47.35550 16.95037 25599 ft 395 kts 150°
2026-04-24 14:18 47.33126 16.96927 26067 ft 397 kts 150°
2026-04-24 14:18 47.30678 16.98833 26526 ft 400 kts 150°
2026-04-24 14:19 47.29031 17.00113 26817 ft 402 kts 150°
2026-04-24 14:19 47.25738 17.02671 27383 ft 406 kts 150°
2026-04-24 14:19 47.23230 17.04618 27801 ft 409 kts 150°
2026-04-24 14:19 47.20736 17.06552 28212 ft 411 kts 150°
2026-04-24 14:20 47.18193 17.08521 28616 ft 414 kts 150°
2026-04-24 14:20 47.15622 17.10509 29005 ft 416 kts 150°
2026-04-24 14:20 47.13081 17.12472 29370 ft 418 kts 150°
2026-04-24 14:20 47.10474 17.14484 29734 ft 420 kts 150°
2026-04-24 14:21 47.07884 17.16481 30074 ft 423 kts 150°
2026-04-24 14:21 47.05297 17.18473 30390 ft 425 kts 150°
2026-04-24 14:21 47.02682 17.20484 30683 ft 427 kts 149°
2026-04-24 14:21 47.00058 17.22500 30981 ft 429 kts 149°
2026-04-24 14:22 46.97389 17.24547 31260 ft 431 kts 149°
2026-04-24 14:22 46.94752 17.26568 31535 ft 433 kts 149°
2026-04-24 14:22 46.89401 17.30663 32084 ft 437 kts 149°
2026-04-24 14:23 46.86694 17.32732 32325 ft 439 kts 149°
2026-04-24 14:23 46.83989 17.34796 32561 ft 440 kts 149°
2026-04-24 14:23 46.81293 17.36853 32808 ft 442 kts 149°
2026-04-24 14:23 46.78578 17.38920 33075 ft 442 kts 149°
2026-04-24 14:24 46.75819 17.41016 33320 ft 444 kts 149°
2026-04-24 14:24 46.73094 17.43085 33531 ft 445 kts 148°
2026-04-24 14:24 46.70360 17.45160 33735 ft 447 kts 148°
2026-04-24 14:24 46.67588 17.47262 33934 ft 449 kts 148°
2026-04-24 14:25 46.65751 17.48653 34078 ft 449 kts 148°
2026-04-24 14:25 46.62064 17.51442 34335 ft 451 kts 148°
2026-04-24 14:25 46.59278 17.53546 34525 ft 453 kts 148°
2026-04-24 14:25 46.56499 17.55645 34737 ft 453 kts 148°
2026-04-24 14:26 46.53694 17.57760 34932 ft 455 kts 148°
2026-04-24 14:26 46.48092 17.61976 35029 ft 456 kts 148°
2026-04-24 14:27 46.42440 17.66215 35031 ft 455 kts 149°
2026-04-24 14:27 46.36817 17.70425 35037 ft 455 kts 149°
2026-04-24 14:28 46.31239 17.74591 35039 ft 455 kts 149°
2026-04-24 14:28 46.25596 17.78798 35048 ft 455 kts 149°
2026-04-24 14:29 46.20021 17.82943 35048 ft 455 kts 149°
2026-04-24 14:29 46.14405 17.87110 35046 ft 455 kts 149°
2026-04-24 14:30 46.09713 17.90582 35048 ft 454 kts 148°
2026-04-24 14:30 46.03178 17.95409 35048 ft 453 kts 148°
2026-04-24 14:31 45.97570 17.99546 35040 ft 453 kts 148°
2026-04-24 14:31 45.91996 18.03646 35005 ft 453 kts 148°
2026-04-24 14:32 45.86357 18.07782 35046 ft 453 kts 148°
2026-04-24 14:32 45.80698 18.11727 35043 ft 455 kts 153°
2026-04-24 14:33 45.74747 18.14795 35039 ft 458 kts 160°
2026-04-24 14:33 45.68562 18.17088 35035 ft 459 kts 162°
2026-04-24 14:34 45.62371 18.19329 35042 ft 458 kts 162°
2026-04-24 14:34 45.56227 18.21560 35041 ft 458 kts 162°
2026-04-24 14:35 45.50075 18.23794 35044 ft 458 kts 162°
2026-04-24 14:35 45.43915 18.26024 35042 ft 458 kts 161°
2026-04-24 14:36 45.37746 18.28254 35041 ft 457 kts 161°
2026-04-24 14:36 45.31604 18.30471 35046 ft 457 kts 161°
2026-04-24 14:37 45.25443 18.32690 35041 ft 457 kts 161°
2026-04-24 14:37 45.19296 18.34900 35046 ft 455 kts 161°
2026-04-24 14:38 45.13200 18.37084 35046 ft 455 kts 161°
2026-04-24 14:38 45.07164 18.39647 35043 ft 452 kts 156°
2026-04-24 14:39 45.01238 18.42593 35049 ft 451 kts 156°
2026-04-24 14:39 44.95341 18.45524 35052 ft 452 kts 156°
2026-04-24 14:40 44.89427 18.48452 35053 ft 451 kts 156°
2026-04-24 14:40 44.83483 18.51387 35057 ft 450 kts 155°
2026-04-24 14:41 44.77591 18.54293 35052 ft 451 kts 156°
2026-04-24 14:41 44.71682 18.57199 35058 ft 451 kts 156°
2026-04-24 14:42 44.66731 18.59627 35052 ft 450 kts 155°
2026-04-24 14:42 44.59855 18.62996 35053 ft 450 kts 155°
2026-04-24 14:43 44.53980 18.65867 35059 ft 450 kts 156°
2026-04-24 14:43 44.48051 18.68757 35058 ft 450 kts 156°
2026-04-24 14:44 44.42141 18.71633 35065 ft 451 kts 156°
2026-04-24 14:44 44.36258 18.74489 35067 ft 450 kts 156°
2026-04-24 14:45 44.30368 18.77342 35070 ft 449 kts 156°
2026-04-24 14:45 44.24449 18.80205 35069 ft 449 kts 156°
2026-04-24 14:46 44.18581 18.83035 35068 ft 448 kts 156°
2026-04-24 14:46 44.12689 18.85872 35069 ft 448 kts 156°
2026-04-24 14:47 44.07789 18.88226 35067 ft 449 kts 156°
2026-04-24 14:47 44.00914 18.91523 35063 ft 450 kts 156°
2026-04-24 14:48 43.94995 18.94355 35061 ft 449 kts 156°
2026-04-24 14:48 43.89135 18.97152 35061 ft 448 kts 156°
2026-04-24 14:49 43.83224 18.99968 35064 ft 447 kts 156°
2026-04-24 14:49 43.77367 19.02752 35066 ft 447 kts 156°
2026-04-24 14:50 43.71467 19.05551 35065 ft 447 kts 156°
2026-04-24 14:50 43.65620 19.08319 35067 ft 447 kts 156°
2026-04-24 14:51 43.59738 19.11100 35067 ft 447 kts 156°
2026-04-24 14:51 43.53866 19.13868 35063 ft 446 kts 156°
2026-04-24 14:52 43.48015 19.16619 35065 ft 445 kts 156°
2026-04-24 14:52 43.42127 19.19386 35070 ft 446 kts 156°
2026-04-24 14:53 43.36279 19.22125 35064 ft 446 kts 156°
2026-04-24 14:53 43.30413 19.24868 35003 ft 444 kts 156°
2026-04-24 14:54 43.24565 19.27600 35046 ft 445 kts 156°
2026-04-24 14:54 43.18722 19.30322 35037 ft 445 kts 156°
2026-04-24 14:55 43.13832 19.32594 35053 ft 445 kts 156°
2026-04-24 14:55 43.07040 19.35742 35059 ft 444 kts 155°
2026-04-24 14:56 43.01178 19.38457 35054 ft 443 kts 155°
2026-04-24 14:56 42.95363 19.41145 35050 ft 442 kts 155°
2026-04-24 14:57 42.89559 19.43823 35050 ft 443 kts 156°
2026-04-24 14:57 42.83738 19.46503 35049 ft 442 kts 155°
2026-04-24 14:58 42.77880 19.49192 35047 ft 442 kts 155°
2026-04-24 14:58 42.72062 19.51863 35045 ft 442 kts 155°
2026-04-24 14:59 42.66249 19.54526 35042 ft 442 kts 155°
2026-04-24 14:59 42.60454 19.57222 35039 ft 439 kts 153°
2026-04-24 15:00 42.54916 19.60539 35029 ft 435 kts 146°
2026-04-24 15:00 42.49735 19.64667 35029 ft 431 kts 140°
2026-04-24 15:01 42.44926 19.69555 35027 ft 430 kts 135°
2026-04-24 15:01 42.40282 19.74611 35027 ft 430 kts 135°
2026-04-24 15:02 42.35613 19.79682 35031 ft 429 kts 135°
2026-04-24 15:02 42.30971 19.84705 35034 ft 429 kts 135°
2026-04-24 15:03 42.27094 19.88896 35037 ft 428 kts 135°
2026-04-24 15:03 42.21702 19.94707 35037 ft 427 kts 135°
2026-04-24 15:04 42.17072 19.99687 35033 ft 427 kts 135°
2026-04-24 15:04 42.12460 20.04640 35028 ft 425 kts 135°
2026-04-24 15:05 42.07846 20.09588 35028 ft 425 kts 135°
2026-04-24 15:05 42.03213 20.14546 35029 ft 425 kts 135°
2026-04-24 15:06 41.98560 20.19515 35271 ft 428 kts 135°
2026-04-24 15:06 41.96215 20.22015 35415 ft 429 kts 135°
2026-04-24 15:06 41.93801 20.24590 35584 ft 429 kts 135°
2026-04-24 15:06 41.91322 20.27227 35759 ft 429 kts 135°
2026-04-24 15:07 41.88860 20.29845 35899 ft 430 kts 135°
2026-04-24 15:07 41.86504 20.32347 36005 ft 431 kts 135°
2026-04-24 15:07 41.84144 20.34851 36142 ft 431 kts 135°
2026-04-24 15:07 41.81810 20.37325 36280 ft 432 kts 135°
2026-04-24 15:08 41.79455 20.39821 36400 ft 432 kts 135°
2026-04-24 15:08 41.77094 20.42322 36516 ft 433 kts 135°
2026-04-24 15:08 41.74760 20.44789 36645 ft 433 kts 135°
2026-04-24 15:08 41.72392 20.47291 36816 ft 433 kts 135°
2026-04-24 15:09 41.70017 20.49798 36964 ft 433 kts 136°
2026-04-24 15:09 41.65297 20.54771 37010 ft 433 kts 136°
2026-04-24 15:10 41.60588 20.59741 37014 ft 432 kts 136°
2026-04-24 15:10 41.55887 20.64696 37023 ft 433 kts 135°
2026-04-24 15:11 41.51157 20.69678 37012 ft 433 kts 136°
2026-04-24 15:11 41.46437 20.74642 37021 ft 433 kts 136°
2026-04-24 15:12 41.41728 20.79584 37013 ft 432 kts 136°
2026-04-24 15:12 41.34681 20.86960 37029 ft 432 kts 136°
2026-04-24 15:13 41.29943 20.91908 37016 ft 431 kts 136°
2026-04-24 15:13 41.25234 20.96817 37019 ft 431 kts 136°
2026-04-24 15:14 41.20548 21.01696 37025 ft 431 kts 136°
2026-04-24 15:14 41.15821 21.06603 37010 ft 430 kts 136°
2026-04-24 15:15 41.11108 21.11491 36990 ft 431 kts 136°
2026-04-24 15:15 41.06388 21.16375 37003 ft 432 kts 136°
2026-04-24 15:16 41.01679 21.21242 36991 ft 431 kts 136°
2026-04-24 15:16 40.96943 21.26129 37003 ft 432 kts 136°
2026-04-24 15:17 40.92233 21.30979 37013 ft 432 kts 136°
2026-04-24 15:17 40.87523 21.35907 37009 ft 430 kts 134°
2026-04-24 15:18 40.83140 21.41203 37005 ft 429 kts 131°
2026-04-24 15:18 40.78788 21.46565 37009 ft 430 kts 131°
2026-04-24 15:19 40.74405 21.51949 37004 ft 430 kts 131°
2026-04-24 15:19 40.70042 21.57306 37007 ft 431 kts 131°
2026-04-24 15:20 40.65665 21.62667 37007 ft 431 kts 131°
2026-04-24 15:20 40.61264 21.68050 37003 ft 431 kts 132°
2026-04-24 15:21 40.56891 21.73385 36994 ft 432 kts 132°
2026-04-24 15:21 40.52493 21.78740 36998 ft 432 kts 132°
2026-04-24 15:22 40.48077 21.84109 37007 ft 433 kts 132°
2026-04-24 15:23 40.41442 21.92158 36996 ft 434 kts 132°
2026-04-24 15:23 40.34783 22.00213 37003 ft 434 kts 133°
2026-04-24 15:25 40.24427 22.12692 36979 ft 436 kts 133°
2026-04-24 15:26 40.12517 22.26979 36976 ft 436 kts 133°
2026-04-24 15:27 39.99125 22.42959 36967 ft 437 kts 133°
2026-04-24 15:29 39.85644 22.58956 36971 ft 437 kts 133°
2026-04-24 15:31 39.69958 22.77457 36982 ft 437 kts 134°
2026-04-24 15:33 39.51942 22.98565 36968 ft 436 kts 134°
2026-04-24 15:34 39.40683 23.11676 36976 ft 437 kts 134°
2026-04-24 15:35 39.29419 23.24734 36990 ft 437 kts 134°
2026-04-24 15:36 39.24894 23.29965 36974 ft 436 kts 135°
2026-04-24 15:36 39.18141 23.37750 36981 ft 436 kts 135°
2026-04-24 15:37 39.13625 23.42949 36980 ft 437 kts 135°
2026-04-24 15:37 39.09074 23.48176 36984 ft 437 kts 135°
2026-04-24 15:38 39.04570 23.53343 36981 ft 437 kts 135°
2026-04-24 15:38 39.00032 23.58542 36985 ft 437 kts 135°
2026-04-24 15:39 38.95531 23.63685 36983 ft 436 kts 135°
2026-04-24 15:39 38.91035 23.68923 36994 ft 435 kts 135°
2026-04-24 15:40 38.86628 23.74178 36997 ft 435 kts 134°
2026-04-24 15:40 38.82206 23.79440 36993 ft 434 kts 135°
2026-04-24 15:41 38.77762 23.84708 37000 ft 434 kts 135°
2026-04-24 15:41 38.73347 23.89932 36987 ft 434 kts 135°
2026-04-24 15:42 38.68944 23.95131 36988 ft 433 kts 135°
2026-04-24 15:42 38.64531 24.00335 36964 ft 432 kts 135°
2026-04-24 15:43 38.60102 24.05547 36979 ft 432 kts 135°
2026-04-24 15:43 38.55709 24.10709 36968 ft 432 kts 135°
2026-04-24 15:44 38.51292 24.15883 36973 ft 432 kts 135°
2026-04-24 15:44 38.46868 24.21068 36960 ft 431 kts 136°
2026-04-24 15:45 38.42455 24.26225 36966 ft 431 kts 136°
2026-04-24 15:45 38.38055 24.31359 36975 ft 430 kts 136°
2026-04-24 15:46 38.33665 24.36472 36982 ft 429 kts 136°
2026-04-24 15:46 38.29252 24.41605 36975 ft 430 kts 136°
2026-04-24 15:47 38.24862 24.46707 36976 ft 428 kts 137°
2026-04-24 15:47 38.20478 24.51788 36971 ft 428 kts 137°
2026-04-24 15:48 38.16016 24.56820 36972 ft 428 kts 141°
2026-04-24 15:48 38.11385 24.61503 36971 ft 428 kts 141°
2026-04-24 15:49 38.06711 24.66221 36968 ft 430 kts 142°
2026-04-24 15:49 38.02017 24.70951 36972 ft 432 kts 142°
2026-04-24 15:50 37.97320 24.75677 36970 ft 432 kts 142°
2026-04-24 15:50 37.92614 24.80410 36971 ft 432 kts 142°
2026-04-24 15:51 37.87905 24.85139 36972 ft 432 kts 142°
2026-04-24 15:51 37.83204 24.89850 36969 ft 432 kts 143°
2026-04-24 15:52 37.78515 24.94535 36973 ft 432 kts 142°
2026-04-24 15:52 37.73783 24.99262 36964 ft 432 kts 143°
2026-04-24 15:53 37.69087 25.03945 36968 ft 433 kts 143°
2026-04-24 15:53 37.64346 25.08663 36962 ft 433 kts 143°
2026-04-24 15:54 37.59619 25.13359 36963 ft 432 kts 143°
2026-04-24 15:54 37.54901 25.18037 36965 ft 432 kts 143°
2026-04-24 15:55 37.50160 25.22733 36951 ft 432 kts 144°
2026-04-24 15:55 37.45452 25.27390 36956 ft 432 kts 144°
2026-04-24 15:56 37.40736 25.32043 36952 ft 432 kts 144°
2026-04-24 15:56 37.36013 25.36698 36957 ft 431 kts 144°
2026-04-24 15:57 37.31294 25.41339 36965 ft 431 kts 145°
2026-04-24 15:57 37.26592 25.45957 36959 ft 431 kts 145°
2026-04-24 15:58 37.21867 25.50589 36965 ft 432 kts 145°
2026-04-24 15:58 37.17121 25.55236 36951 ft 432 kts 145°
2026-04-24 15:59 37.12404 25.59849 36950 ft 432 kts 146°
2026-04-24 15:59 37.07672 25.64461 36965 ft 431 kts 145°
2026-04-24 16:00 37.02935 25.69080 36963 ft 431 kts 146°
2026-04-24 16:00 36.98206 25.73680 36958 ft 430 kts 147°
2026-04-24 16:01 36.93456 25.78290 36943 ft 430 kts 147°
2026-04-24 16:01 36.88758 25.82844 36944 ft 431 kts 147°
2026-04-24 16:02 36.84025 25.87424 36933 ft 430 kts 147°
2026-04-24 16:02 36.79284 25.92007 36935 ft 430 kts 147°
2026-04-24 16:03 36.74556 25.96568 36941 ft 430 kts 147°
2026-04-24 16:03 36.69837 26.01113 36936 ft 430 kts 147°
2026-04-24 16:04 36.65104 26.05662 36943 ft 430 kts 147°
2026-04-24 16:04 36.60358 26.10221 36936 ft 430 kts 148°
2026-04-24 16:05 36.53260 26.17022 36927 ft 430 kts 148°
2026-04-24 16:06 36.46148 26.23821 36933 ft 431 kts 148°
2026-04-24 16:07 36.39038 26.30603 36942 ft 431 kts 148°
2026-04-24 16:07 36.31884 26.37407 36936 ft 431 kts 148°
2026-04-24 16:08 36.24765 26.44167 36932 ft 431 kts 148°
2026-04-24 16:09 36.17621 26.50929 36924 ft 432 kts 148°
2026-04-24 16:09 36.12828 26.55460 36922 ft 432 kts 148°
2026-04-24 16:11 36.00893 26.66708 36920 ft 432 kts 149°
2026-04-24 16:11 35.96107 26.71207 36924 ft 432 kts 149°
2026-04-24 16:12 35.88938 26.77930 36934 ft 432 kts 149°
2026-04-24 16:13 35.81768 26.84638 36914 ft 432 kts 149°
2026-04-24 16:14 35.72199 26.93570 36927 ft 434 kts 149°
2026-04-24 16:14 35.64981 27.00288 36928 ft 433 kts 149°
2026-04-24 16:15 35.57804 27.06952 36923 ft 433 kts 149°
2026-04-24 16:16 35.50615 27.13613 36920 ft 433 kts 149°
2026-04-24 16:17 35.38590 27.24723 36931 ft 433 kts 150°
2026-04-24 16:18 35.28978 27.33570 36928 ft 433 kts 149°
2026-04-24 16:19 35.21772 27.40186 36919 ft 434 kts 149°
2026-04-24 16:20 35.14555 27.46795 36928 ft 434 kts 149°
2026-04-24 16:20 35.07320 27.53410 36921 ft 433 kts 150°
2026-04-24 16:21 35.00079 27.60012 36946 ft 433 kts 149°
2026-04-24 16:22 34.95275 27.64387 36953 ft 433 kts 150°
2026-04-24 16:22 34.88025 27.70975 36908 ft 432 kts 150°
2026-04-24 16:23 34.83193 27.75354 36903 ft 433 kts 150°
2026-04-24 16:24 34.75985 27.81877 36910 ft 433 kts 150°
2026-04-24 16:24 34.71141 27.86252 36921 ft 434 kts 150°
2026-04-24 16:25 34.66289 27.90628 36916 ft 434 kts 150°
2026-04-24 16:25 34.61458 27.94980 36897 ft 434 kts 150°
2026-04-24 16:26 34.54195 28.01510 36909 ft 434 kts 150°
2026-04-24 16:27 34.46914 28.08042 36914 ft 434 kts 150°
2026-04-24 16:27 34.42053 28.12395 36916 ft 434 kts 150°
2026-04-24 16:28 34.37227 28.16710 36918 ft 434 kts 150°
2026-04-24 16:28 34.29958 28.23197 36913 ft 433 kts 150°
2026-04-24 16:29 34.25097 28.27526 36913 ft 433 kts 150°
2026-04-24 16:30 34.15419 28.36130 36920 ft 432 kts 150°
2026-04-24 16:30 34.10620 28.40391 36914 ft 424 kts 150°
2026-04-24 16:31 34.05901 28.44585 36912 ft 408 kts 151°
2026-04-24 16:31 34.01408 28.48561 36920 ft 405 kts 151°
2026-04-24 16:32 33.96853 28.52562 36913 ft 417 kts 151°
2026-04-24 16:32 33.92091 28.56758 36911 ft 428 kts 150°
2026-04-24 16:33 33.87268 28.61011 36906 ft 431 kts 150°
2026-04-24 16:33 33.82427 28.65278 36903 ft 432 kts 151°
2026-04-24 16:34 33.77610 28.69516 36903 ft 431 kts 151°
2026-04-24 16:34 33.72795 28.73769 36903 ft 432 kts 149°
2026-04-24 16:35 33.68205 28.78508 36907 ft 437 kts 144°
2026-04-24 16:35 33.63749 28.83511 36904 ft 438 kts 144°
2026-04-24 16:36 33.59331 28.88475 36900 ft 438 kts 143°
2026-04-24 16:36 33.54870 28.93473 36908 ft 438 kts 143°
2026-04-24 16:37 33.50428 28.98444 36909 ft 438 kts 143°
2026-04-24 16:37 33.45996 29.03394 36912 ft 437 kts 143°
2026-04-24 16:38 33.41559 29.08342 36910 ft 437 kts 143°
2026-04-24 16:38 33.37126 29.13279 36907 ft 437 kts 143°
2026-04-24 16:39 33.32658 29.18249 36909 ft 437 kts 143°
2026-04-24 16:39 33.28215 29.23180 37106 ft 438 kts 143°
2026-04-24 16:40 33.25982 29.25658 36975 ft 436 kts 143°
2026-04-24 16:40 33.23773 29.28108 37106 ft 436 kts 143°
2026-04-24 16:40 33.21566 29.30551 36985 ft 436 kts 143°
2026-04-24 16:40 33.19335 29.33021 36938 ft 436 kts 143°
2026-04-24 16:41 33.14901 29.37924 36914 ft 436 kts 143°
2026-04-24 16:41 33.10443 29.42847 36911 ft 435 kts 143°
2026-04-24 16:42 33.06022 29.47720 36908 ft 436 kts 143°
2026-04-24 16:42 33.01566 29.52625 36909 ft 435 kts 143°
2026-04-24 16:43 32.97126 29.57506 36909 ft 435 kts 143°
2026-04-24 16:43 32.92688 29.62377 36907 ft 435 kts 143°
2026-04-24 16:44 32.88238 29.67255 36909 ft 434 kts 143°
2026-04-24 16:44 32.83812 29.72099 36909 ft 434 kts 143°
2026-04-24 16:45 32.79350 29.76978 36909 ft 435 kts 143°
2026-04-24 16:45 32.74899 29.81836 36913 ft 436 kts 143°
2026-04-24 16:46 32.70457 29.86680 36911 ft 435 kts 143°
2026-04-24 16:46 32.65998 29.91537 36914 ft 435 kts 143°
2026-04-24 16:47 32.61558 29.96365 36914 ft 434 kts 143°
2026-04-24 16:47 32.57125 30.01181 36911 ft 434 kts 143°
2026-04-24 16:48 32.52661 30.06024 36908 ft 435 kts 143°
2026-04-24 16:48 32.48209 30.10843 36908 ft 435 kts 143°
2026-04-24 16:49 32.43732 30.15657 36909 ft 435 kts 143°
2026-04-24 16:49 32.39265 30.20458 36907 ft 435 kts 143°
2026-04-24 16:50 32.34800 30.25256 36905 ft 435 kts 143°
2026-04-24 16:50 32.30305 30.30083 36901 ft 434 kts 143°
2026-04-24 16:51 32.25903 30.34812 36895 ft 424 kts 143°
2026-04-24 16:51 32.21541 30.39484 36896 ft 422 kts 143°
2026-04-24 16:52 32.17196 30.44126 36892 ft 422 kts 143°
2026-04-24 16:52 32.12839 30.48781 36893 ft 422 kts 143°
2026-04-24 16:53 32.08485 30.53427 36817 ft 424 kts 143°
2026-04-24 16:53 32.06321 30.55733 36538 ft 423 kts 143°
2026-04-24 16:53 32.04115 30.58081 36254 ft 423 kts 143°
2026-04-24 16:54 32.01949 30.60387 35980 ft 423 kts 143°
2026-04-24 16:54 31.99777 30.62698 35703 ft 423 kts 143°
2026-04-24 16:54 31.97582 30.65029 35429 ft 422 kts 143°
2026-04-24 16:54 31.95410 30.67338 35151 ft 421 kts 144°
2026-04-24 16:55 31.93250 30.69630 34878 ft 421 kts 144°
2026-04-24 16:55 31.91089 30.71925 34604 ft 421 kts 144°
2026-04-24 16:55 31.88908 30.74235 34327 ft 420 kts 144°
2026-04-24 16:55 31.86744 30.76528 34062 ft 420 kts 143°
2026-04-24 16:56 31.84565 30.78835 33795 ft 420 kts 143°
2026-04-24 16:56 31.82404 30.81121 33535 ft 422 kts 143°
2026-04-24 16:56 31.80234 30.83416 33265 ft 423 kts 143°
2026-04-24 16:56 31.78022 30.85753 32996 ft 423 kts 143°
2026-04-24 16:57 31.75864 30.88032 32733 ft 424 kts 143°
2026-04-24 16:57 31.73653 30.90368 32464 ft 424 kts 143°
2026-04-24 16:57 31.71469 30.92674 32199 ft 425 kts 143°
2026-04-24 16:57 31.69277 30.94985 31928 ft 426 kts 143°
2026-04-24 16:58 31.67077 30.97304 31661 ft 426 kts 143°
2026-04-24 16:58 31.64886 30.99612 31394 ft 426 kts 143°
2026-04-24 16:58 31.62674 31.01943 31123 ft 427 kts 143°
2026-04-24 16:58 31.60458 31.04274 30862 ft 427 kts 143°
2026-04-24 16:59 31.58243 31.06599 30590 ft 428 kts 143°
2026-04-24 16:59 31.56017 31.08902 30205 ft 428 kts 146°
2026-04-24 16:59 31.50892 31.12268 29015 ft 418 kts 165°
2026-04-24 17:00 31.48121 31.13138 28317 ft 414 kts 173°
2026-04-24 17:00 31.42430 31.14225 27033 ft 411 kts 175°
2026-04-24 17:00 31.39620 31.14741 26547 ft 407 kts 175°
2026-04-24 17:01 31.34101 31.15768 25577 ft 400 kts 174°
2026-04-24 17:01 31.31357 31.16281 25088 ft 397 kts 175°
2026-04-24 17:02 31.25950 31.17294 24115 ft 392 kts 174°
2026-04-24 17:02 31.23238 31.17799 23870 ft 398 kts 174°
2026-04-24 17:02 31.20482 31.18308 23861 ft 401 kts 175°
2026-04-24 17:02 31.17729 31.18819 23859 ft 401 kts 174°
2026-04-24 17:03 31.12189 31.19849 23863 ft 402 kts 174°
2026-04-24 17:03 31.09438 31.20361 23861 ft 401 kts 174°
2026-04-24 17:03 31.06689 31.20873 23715 ft 398 kts 174°
2026-04-24 17:04 31.03952 31.21382 22944 ft 402 kts 174°
2026-04-24 17:04 30.98372 31.22415 21284 ft 408 kts 174°
2026-04-24 17:04 30.95580 31.22933 20698 ft 404 kts 174°
2026-04-24 17:05 30.92816 31.23447 20112 ft 401 kts 174°
2026-04-24 17:05 30.90083 31.23954 19532 ft 398 kts 174°
2026-04-24 17:05 30.84653 31.24960 18377 ft 392 kts 174°
2026-04-24 17:06 30.81956 31.25461 17786 ft 389 kts 174°
2026-04-24 17:06 30.76646 31.26442 16641 ft 383 kts 174°
2026-04-24 17:06 30.74042 31.26924 16093 ft 379 kts 173°
2026-04-24 17:07 30.72316 31.27243 15732 ft 377 kts 173°
2026-04-24 17:07 30.68878 31.27878 15035 ft 372 kts 173°
2026-04-24 17:07 30.63811 31.28482 13971 ft 361 kts 188°
2026-04-24 17:08 30.58946 31.27343 13004 ft 350 kts 194°
2026-04-24 17:08 30.56590 31.26693 12624 ft 343 kts 194°
2026-04-24 17:08 30.54295 31.26054 12256 ft 338 kts 194°
2026-04-24 17:09 30.49736 31.24774 11512 ft 336 kts 194°
2026-04-24 17:09 30.45205 31.23485 10783 ft 335 kts 194°
2026-04-24 17:10 30.42947 31.22832 10407 ft 332 kts 194°
2026-04-24 17:10 30.36421 31.20906 9289 ft 309 kts 194°
2026-04-24 17:11 30.30543 31.19132 8176 ft 285 kts 194°
2026-04-24 17:12 30.20923 31.16074 6105 ft 289 kts 194°